Location: Unspecified
(0.0000°N, 0.0000°E)
Time: 17:15:02
(UTC+00:00)

STARLINK-36492 - Visible Passes

Search period start: 08 March 2026 00:00
Search period end: 18 March 2026 00:00
Orbit: 480 x 486 km, 43.0° (Epoch: 8 March)

Date Brightness Start Highest point End Pass type
(mag) Time Alt. Az. Time Alt. Az. Time Alt. Az.
14 Mar ? 19:27:55 10° N 19:29:26 18° N 19:29:26 18° N visible
15 Mar ? 18:59:40 10° N 19:02:41 23° NE 19:03:29 21° ENE visible
16 Mar ? 18:31:21 10° N 18:34:17 21° NE 18:37:14 10° E visible
16 Mar ? 20:10:04 10° W 20:11:50 19° WSW 20:11:50 19° WSW visible
17 Mar ? 19:41:31 10° W 19:44:33 23° SW 19:45:52 19° SSW visible
